Tracking 18980 objects as of 18-Feb-2018
HD Live streaming from Space Station
objects crossing your sky now

FENGYUN 1C DEB

Track FENGYUN 1C DEB now!
10-day predictions


NORAD ID: 30270
Int'l Code: 1999-025YF
Perigee: 861.1 km
Apogee: 870.5 km
Inclination: 99.0 °
Period: 102.1 minutes
Semi major axis: 7236 km
RCS: 0.1278 m2 (medium)
Launch date: May 10, 1999
Source: People's Republic of China (PRC)
Launch site: Taiyaun Space Center, China (TSC)

Note: This is SATELLITE DEBRIS
aabbcc
Your satellite tracking list
Your tracking list is empty




NASA's NSSDC Master Catalog

Two Line Element Set (TLE):
1 30270U 99025YF  18048.92224437 -.00000000 +00000-0 +25146-4 0  9994
2 30270 098.9786 075.8077 0006536 319.1510 116.1722 14.10207956571160
Source of the keplerian elements: AFSPC